Weather observations for the past three days for
Mount Pleasant Regional-Faison Field
Imperial (Metric)
Date Time (edt) Wind (mph) Vis. (mi.) Weather Sky Cond. Temperature (ºF) Relative Humidity Wind Chill (°F) Heat Index (°F) Pressure Precipitation (in)
Air Dwpt 6 hour altimeter (in) sea level (mb) 1 hr 3 hr 6 hr
Max. Min.
18 19:55 Calm 7.00 Fair CLR 84.2 80.6 89% 98 29.97 0.0
18 19:35 S 12 G 21 7.00 A Few Clouds FEW023 84.2 80.6 89% 98 29.97 0.0
18 19:15 S 13 G 20 8.00 Fair CLR 86 80.6 84% 102 29.97 0.0
18 18:55 S 9 G 18 8.00 Fair CLR 86 80.6 84% 102 29.97 0.0
18 18:35 S 17 8.00 Fair CLR 87.8 78.8 75% 102 29.96 0.0
18 18:15 S 15 G 22 7.00 Fair CLR 86 78.8 79% 99 29.95 0.0
18 17:55 S 15 8.00 Fair CLR 87.8 80.6 79% 105 29.95 0.0
18 17:35 S 14 G 25 7.00 A Few Clouds FEW025 87.8 80.6 79% 105 29.96 0.0
18 17:15 S 15 8.00 A Few Clouds FEW026 87.8 80.6 79% 105 29.96 0.0
18 16:55 S 15 G 21 7.00 Fair CLR 87.8 80.6 79% 105 29.97 0.0
18 16:35 S 17 7.00 Fair CLR 89.6 80.6 75% 108 29.97 0.0
18 16:15 S 15 G 22 8.00 Fair CLR 89.6 80.6 75% 108 29.97 0.0
18 15:55 S 15 7.00 Fair CLR 89.6 78.8 71% 105 29.98 0.0
18 15:35 S 15 G 21 8.00 Fair CLR 89.6 78.8 71% 105 29.99 0.0
18 15:15 S 14 8.00 Fair CLR 89.6 78.8 71% 105 30 0.0
18 14:55 S 15 8.00 Fair CLR 89.6 77 67% 103 30.01 0.0
18 14:35 S 14 8.00 Fair CLR 89.6 77 67% 103 30.01 0.0
18 14:15 S 15 G 23 8.00 A Few Clouds FEW027 89.6 78.8 71% 105 30.02 0.0
18 13:55 S 15 7.00 Partly Cloudy SCT029 89.6 80.6 75% 108 30.02 0.0
18 13:35 S 15 8.00 A Few Clouds FEW031 89.6 78.8 71% 105 30.03 0.0
18 12:55 S 14 8.00 Fair CLR 89.6 78.8 71% 105 30.04 0.0
18 12:35 SW 7 G 18 8.00 Fair CLR 87.8 78.8 75% 102 30.05 0.0
18 12:15 S 9 8.00 Fair CLR 86 78.8 79% 99 30.05 0.0
18 11:55 Calm 8.00 Fair CLR 84.2 77 79% 94 30.05 0.0
18 11:35 SW 6 8.00 Fair CLR 84.2 77 79% 94 30.05 0.0
18 10:55 SW 9 8.00 Fair CLR 84.2 77 79% 94 30.05 0.0
18 10:15 W 8 8.00 Fair CLR 82.4 77 84% 91 30.05 0.0
18 09:55 SW 10 8.00 Fair CLR 82.4 77 84% 91 30.04 0.0
18 09:35 SW 7 8.00 Fair CLR 80.6 77 89% 87 30.04 0.0
18 09:15 SW 3 G 12 7.00 Fair CLR 80.6 77 89% 87 30.05 0.0
18 08:55 Calm 8.00 Fair CLR 80.6 77 89% 87 30.05 0.0
18 08:35 Calm 8.00 Fair CLR 78.8 75.2 89% 82 30.05 0.0
18 08:15 Vrbl 7 8.00 Thunderstorm in Vicinity CLR 80.6 75.2 84% 86 30.05 0.0
18 07:55 Calm 8.00 Fair CLR 80.6 75.2 84% 86 30.05 0.0
18 07:35 Calm 8.00 Fair CLR 80.6 75.2 84% 86 30.04 0.0
18 07:15 Calm 8.00 A Few Clouds FEW070 80.6 77 89% 87 30.03 0.0
18 06:55 Calm 8.00 Mostly Cloudy SCT070 BKN075 78.8 77 94% 83 30.02 0.0
18 06:35 Calm 8.00 Thunderstorm in Vicinity SCT070 78.8 77 94% 83 30.02 0.0
18 06:15 Calm 10.00 Fair CLR 78.8 77 94% 83 30.01 0.0
18 05:55 Calm 9.00 A Few Clouds FEW060 FEW110 78.8 78.8 100% 83 30.01 0.0
18 05:35 Calm 10.00 Partly Cloudy SCT060 SCT075 SCT090 80.6 78.8 94% 88 30 0.0
18 05:15 Vrbl 6 G 13 10.00 Overcast FEW060 BKN070 OVC080 80.6 78.8 94% 88 30.01 0.0
18 04:55 Calm 9.00 Mostly Cloudy SCT060 BKN075 80.6 78.8 94% 88 30 0.0
18 04:35 Calm 10.00 Partly Cloudy FEW055 SCT070 80.6 78.8 94% 88 29.99 0.0
18 04:15 Calm 10.00 Fair CLR 80.6 78.8 94% 88 30 0.0
18 03:55 Calm 10.00 Fair CLR 80.6 78.8 94% 88 29.99 0.0
18 03:35 Calm 9.00 A Few Clouds FEW025 80.6 77 89% 87 29.99 0.0
18 03:15 Calm 10.00 Fair CLR 80.6 77 89% 87 29.99 0.0
18 02:55 Calm 10.00 Fair CLR 80.6 77 89% 87 29.99 0.0
18 02:35 S 9 10.00 A Few Clouds FEW036 80.6 77 89% 87 29.99 0.0
18 02:15 S 6 9.00 A Few Clouds FEW036 80.6 77 89% 87 29.99 0.0
18 01:55 S 8 10.00 Fair CLR 80.6 77 89% 87 29.99 0.0
18 01:35 Calm 10.00 Fair CLR 80.6 77 89% 87 30 0.0
18 01:15 S 8 10.00 Fair CLR 80.6 77 89% 87 30.01 0.0
18 00:55 S 7 9.00 A Few Clouds FEW060 80.6 77 89% 87 30.01 0.0
18 00:35 Calm 9.00 A Few Clouds FEW060 80.6 77 89% 87 30.02 0.0
18 00:15 S 3 10.00 Fair CLR 82.4 77 84% 91 30.02 0.0
17 23:55 Calm 10.00 Fair CLR 82.4 77 84% 91 30.02 0.0
17 23:35 Calm 9.00 Fair CLR 82.4 77 84% 91 30.03 0.0
17 23:15 Calm 9.00 A Few Clouds FEW065 82.4 78.8 89% 92 30.04 0.0
17 22:35 S 7 9.00 Fair CLR 84.2 78.8 84% 96 30.04 0.0
17 22:15 S 5 G 15 9.00 Fair CLR 84.2 78.8 84% 96 30.04 0.0
17 21:55 Calm 8.00 Fair CLR 84.2 80.6 89% 98 30.03 0.0
17 21:15 S 10 G 18 8.00 A Few Clouds FEW021 84.2 80.6 89% 98 30.01 0.0
17 20:55 S 9 G 17 8.00 Fair CLR 84.2 80.6 89% 98 29.99 0.0
17 20:15 S 12 G 18 6.00 Fair with Haze CLR 84.2 80.6 89% 98 29.99 0.0
17 19:55 S 13 G 21 7.00 Thunderstorm in Vicinity NULL 86 80.6 84% 102 29.98 0.0
17 19:35 S 13 G 22 6.00 Fog/Mist NULL 86 82.4 89% 105 29.98 0.0
17 19:15 S 16 6.00 Fog/Mist NULL 86 82.4 89% 105 29.98 0.0
17 18:55 S 16 G 25 7.00 Partly Cloudy SCT020 86 82.4 89% 105 29.98 0.0
17 18:35 S 18 6.00 Partly Cloudy with Haze SCT020 86 82.4 89% 105 29.98 0.0
17 18:15 S 17 G 28 6.00 Partly Cloudy with Haze SCT019 87.8 82.4 84% 108 29.97 0.0
17 17:55 S 20 7.00 A Few Clouds FEW021 87.8 82.4 84% 108 29.96 0.0
17 17:35 S 18 7.00 Fair CLR 87.8 82.4 84% 108 29.95 0.0
17 17:15 S 14 G 23 7.00 Fair CLR 89.6 82.4 79% 111 29.96 0.0
17 16:55 S 13 G 20 7.00 Fair CLR 89.6 82.4 79% 111 29.97 0.0
17 16:35 S 15 G 23 6.00 Fair with Haze CLR 89.6 82.4 79% 111 29.98 0.0
17 16:15 S 16 G 23 7.00 Fair CLR 89.6 82.4 79% 111 29.98 0.0
17 15:55 S 15 7.00 Fair CLR 89.6 82.4 79% 111 29.98 0.0
17 15:35 S 16 7.00 Fair CLR 89.6 82.4 79% 111 29.99 0.0
17 15:15 S 17 7.00 Fair CLR 89.6 82.4 79% 111 30 0.0
17 14:55 S 13 G 22 7.00 Fair CLR 89.6 82.4 79% 111 30.01 0.0
17 14:35 S 15 G 23 7.00 Fair CLR 89.6 82.4 79% 111 30.01 0.0
17 14:15 S 14 G 21 7.00 A Few Clouds FEW046 FEW070 91.4 82.4 75% 114 30.01 0.0
17 13:55 SE 12 G 18 7.00 A Few Clouds FEW043 FEW049 FEW055 89.6 82.4 79% 111 30.01 0.0
17 13:35 SW 9 7.00 Fair CLR 91.4 77 63% 105 30.01 0.0
17 13:15 Vrbl 3 G 12 8.00 Fair CLR 91.4 78.8 67% 108 30.02 0.0
17 12:55 Vrbl 5 G 14 7.00 Fair CLR 91.4 78.8 67% 108 30.02 0.0
17 12:35 Vrbl 5 G 13 8.00 Fair CLR 91.4 78.8 67% 108 30.02 0.0
17 12:15 W 9 8.00 Thunderstorm in Vicinity CLR 91.4 80.6 71% 111 30.02 0.0
17 11:55 Calm 7.00 Fair CLR 89.6 78.8 71% 105 30.03 0.0
17 11:35 SW 9 7.00 Fair CLR 89.6 80.6 75% 108 30.03 0.0
17 11:15 W 8 7.00 Fair CLR 87.8 80.6 79% 105 30.04 0.0
17 10:55 W 9 G 17 7.00 Fair CLR 87.8 80.6 79% 105 30.04 0.0
17 10:35 Vrbl 7 G 13 7.00 A Few Clouds FEW026 86 80.6 84% 102 30.04 0.0
17 10:15 W 10 8.00 Thunderstorm in Vicinity CLR 86 78.8 79% 99 30.04 0.0
17 09:55 W 9 7.00 A Few Clouds FEW030 86 78.8 79% 99 30.05 0.0
17 09:35 SW 9 8.00 Fair CLR 86 78.8 79% 99 30.04 0.0
17 09:15 W 9 G 16 7.00 Fair CLR 86 78.8 79% 99 30.05 0.0
17 08:35 SW 10 7.00 Fair CLR 84.2 80.6 89% 98 30.05 0.0
17 08:15 SW 9 7.00 Fair CLR 84.2 80.6 89% 98 30.05 0.0
17 07:55 Calm 7.00 Thunderstorm in Vicinity CLR 82.4 80.6 94% 94 30.03 0.0
17 07:35 Calm 6.00 Fog/Mist CLR 82.4 80.6 94% 94 30.03 0.0
17 07:15 Calm 6.00 Thunderstorm in Vicinity Fog/Mist NULL 82.4 82.4 100% 96 30.02 0.0
17 06:55 Calm 6.00 Fog/Mist NULL 82.4 82.4 100% 96 30.01 0.0
17 06:35 Calm 6.00 Thunderstorm in Vicinity Fog/Mist FEW070 82.4 82.4 100% 96 30 0.0
17 06:15 Calm 7.00 Thunderstorm in Vicinity FEW070 82.4 82.4 100% 96 29.99 0.0
17 05:55 Vrbl 5 7.00 Fair CLR 82.4 82.4 100% 96 29.99 0.0
17 05:35 Calm 7.00 Partly Cloudy SCT020 SCT026 SCT032 82.4 82.4 100% 96 29.98 0.0
17 05:15 SW 7 7.00 Mostly Cloudy SCT020 SCT024 BKN044 82.4 82.4 100% 96 29.98 0.0
17 04:55 S 6 8.00 Mostly Cloudy FEW019 SCT037 BKN045 82.4 82.4 100% 96 29.97 0.0
17 04:35 S 10 8.00 Mostly Cloudy SCT023 BKN031 BKN036 82.4 82.4 100% 96 29.97 0.0
17 04:15 S 7 7.00 A Few Clouds FEW023 82.4 82.4 100% 96 29.96 0.0
17 03:35 Vrbl 7 8.00 Fair CLR 82.4 82.4 100% 96 29.96 0.0
17 03:15 Calm 8.00 Fair CLR 80.6 80.6 100% 89 29.97 0.0
17 02:55 Calm 7.00 Fair CLR 80.6 80.6 100% 89 29.98 0.0
17 02:35 Calm 7.00 Fair CLR 80.6 80.6 100% 89 29.99 0.0
17 02:15 Vrbl 6 7.00 Fair CLR 80.6 80.6 100% 89 29.99 0.0
17 01:55 Vrbl 6 7.00 Fair CLR 80.6 80.6 100% 89 30 0.0
17 01:35 Vrbl 5 7.00 Fair CLR 80.6 80.6 100% 89 30 0.0
17 01:15 S 8 7.00 A Few Clouds FEW023 80.6 80.6 100% 89 30.01 0.0
17 00:55 SE 3 6.00 Fog/Mist NULL 78.8 78.8 100% 83 30.01 0.0
17 00:35 Calm 6.00 Fog/Mist NULL 77 77 100% 78 30.02 0.0
17 00:15 Calm 6.00 Fog/Mist NULL 77 77 100% 78 30.02 0.0
16 23:55 Calm 7.00 NULL NULL 77 77 100% 78 30.03 0.0 0.01
16 23:35 Calm 6.00 Light Drizzle SCT022 SCT028 SCT034 77 77 100% 78 30.03 0.0
16 23:15 Calm 7.00 A Few Clouds FEW028 FEW035 78.8 78.8 100% 83 30.03 0.0
16 22:55 Calm 9.00 Fair CLR 78.8 77 94% 83 30.02 0.0
16 22:35 Calm 9.00 Fair CLR 78.8 77 94% 83 30.03 0.0
16 22:15 SW 8 G 15 10.00 Partly Cloudy FEW029 SCT045 SCT060 78.8 77 94% 83 30.02 0.0
16 21:55 Calm 2.00 Rain SCT024 BKN033 OVC065 82.4 77 84% 91 30.01 0.0 0.01
16 21:35 S 8 G 15 9.00 Thunderstorm in Vicinity SCT023 SCT032 OVC046 84.2 82.4 94% 101 30.01 0.0
16 21:15 S 7 9.00 Mostly Cloudy SCT021 SCT028 BKN046 84.2 80.6 89% 98 30.02 0.0
16 20:55 S 5 G 14 10.00 Fair CLR 84.2 80.6 89% 98 30.02 0.0
16 20:35 S 9 G 15 7.00 Fair CLR 84.2 80.6 89% 98 30.02 0.0
16 20:15 S 13 8.00 Thunderstorm in Vicinity CLR 84.2 80.6 89% 98 30.02 0.0
16 19:55 S 9 7.00 Thunderstorm in Vicinity CLR 84.2 80.6 89% 98 30.01 0.0
16 19:35 S 9 7.00 Thunderstorm in Vicinity CLR 86 80.6 84% 102 30 0.0
16 19:15 S 9 G 17 7.00 Fair CLR 86 80.6 84% 102 29.99 0.0
16 18:55 S 10 G 17 7.00 Fair CLR 86 80.6 84% 102 29.99 0.0
16 18:35 S 15 8.00 Fair CLR 86 80.6 84% 102 29.99 0.0
16 18:15 S 13 G 20 7.00 Fair CLR 87.8 82.4 84% 108 29.98 0.0
16 17:55 S 15 7.00 Fair CLR 87.8 80.6 79% 105 29.98 0.0
16 17:35 S 13 G 18 7.00 Fair CLR 89.6 80.6 75% 108 29.98 0.0
16 17:15 S 14 7.00 Fair CLR 89.6 78.8 71% 105 29.98 0.0
16 16:55 S 16 8.00 Thunderstorm in Vicinity CLR 89.6 78.8 71% 105 29.99 0.0
16 16:35 S 13 G 20 7.00 Thunderstorm in Vicinity CLR 89.6 78.8 71% 105 29.99 0.0
16 16:15 S 15 7.00 Fair CLR 89.6 78.8 71% 105 29.98 0.0
16 15:55 S 14 G 20 7.00 Fair CLR 89.6 77 67% 103 29.99 0.0
16 15:35 SE 10 8.00 Fair CLR 91.4 80.6 71% 111 29.98 0.0
16 15:15 S 13 7.00 Fair CLR 89.6 78.8 71% 105 29.99 0.0
16 14:55 S 13 G 20 7.00 Fair CLR 91.4 80.6 71% 111 30 0.0
16 14:35 S 10 7.00 Fair CLR 89.6 78.8 71% 105 30.01 0.0
16 14:15 S 13 8.00 Fair CLR 91.4 78.8 67% 108 30.01 0.0
16 13:55 S 10 8.00 Fair CLR 89.6 78.8 71% 105 30.01 0.0
16 13:35 S 12 G 18 7.00 Fair CLR 89.6 78.8 71% 105 30.02 0.0
16 13:15 S 12 7.00 Fair CLR 91.4 78.8 67% 108 30.02 0.0
16 12:35 S 9 G 18 5.00 A Few Clouds with Haze FEW028 89.6 82.4 79% 111 30.02 0.0
16 12:15 Calm 7.00 Fair CLR 89.6 78.8 71% 105 30.03 0.0
16 11:55 Calm 8.00 A Few Clouds FEW033 87.8 78.8 75% 102 30.04 0.0
16 11:35 SW 6 7.00 Fair CLR 87.8 78.8 75% 102 30.04 0.0
16 11:15 S 5 G 12 7.00 Fair CLR 87.8 77 70% 100 30.05 0.0
16 10:55 Calm 7.00 Fair CLR 87.8 77 70% 100 30.04 0.0
16 10:35 S 6 7.00 Fair CLR 87.8 78.8 75% 102 30.04 0.0
16 10:15 Calm 6.00 A Few Clouds with Haze FEW060 87.8 78.8 75% 102 30.05 0.0
16 09:35 Vrbl 5 7.00 Fair CLR 86 78.8 79% 99 30.05 0.0
16 09:15 Calm 7.00 Fair CLR 84.2 78.8 84% 96 30.04 0.0
16 08:55 Vrbl 7 7.00 Fair CLR 84.2 78.8 84% 96 30.04 0.0
16 08:35 S 7 8.00 Fair CLR 82.4 78.8 89% 92 30.04 0.0
16 08:15 SW 9 8.00 Fair CLR 82.4 78.8 89% 92 30.03 0.0
16 07:35 Calm 7.00 Fair CLR 80.6 77 89% 87 30.04 0.0
16 07:15 Calm 7.00 Fair CLR 80.6 77 89% 87 30.04 0.0
16 06:55 Calm 8.00 Fair CLR 80.6 77 89% 87 30.03 0.0
16 06:35 Calm 7.00 Fair CLR 78.8 77 94% 83 30.02 0.0
16 06:15 Calm 9.00 Fair CLR 78.8 77 94% 83 30.02 0.0
16 05:55 Calm 9.00 Fair CLR 78.8 77 94% 83 30.01 0.0
16 05:35 SW 6 9.00 Fair CLR 78.8 77 94% 83 30 0.0
16 05:15 S 5 9.00 Fair CLR 78.8 77 94% 83 29.99 0.0
16 04:55 Calm 9.00 Fair CLR 80.6 77 89% 87 29.99 0.0
16 04:35 Calm 10.00 Fair CLR 78.8 78.8 100% 83 29.98 0.0
16 04:15 Calm 8.00 Fair CLR 78.8 78.8 100% 83 29.98 0.0
16 03:55 Calm 8.00 Fair CLR 78.8 78.8 100% 83 29.97 0.0
16 03:35 Calm 7.00 Fair CLR 78.8 78.8 100% 83 29.97 0.0
16 03:15 Calm 8.00 Fair CLR 80.6 78.8 94% 88 29.97 0.0
16 02:55 Calm 9.00 Fair CLR 80.6 80.6 100% 89 29.98 0.0
16 02:35 Calm 8.00 A Few Clouds FEW018 FEW032 80.6 78.8 94% 88 29.98 0.0
16 02:15 SW 5 8.00 Fair CLR 80.6 78.8 94% 88 29.99 0.0
16 01:55 Calm 7.00 Fair CLR 82.4 78.8 89% 92 29.99 0.0
16 01:35 S 7 8.00 Fair CLR 82.4 78.8 89% 92 29.99 0.0
16 01:15 Vrbl 6 G 12 8.00 Fair CLR 82.4 78.8 89% 92 30 0.0
16 00:55 Calm 9.00 Fair CLR 82.4 78.8 89% 92 30 0.0
16 00:35 Vrbl 7 8.00 Fair CLR 82.4 80.6 94% 94 30 0.0
16 00:15 Calm 8.00 Fair CLR 82.4 80.6 94% 94 30 0.0
15 23:55 Calm 8.00 Fair CLR 82.4 80.6 94% 94 30.01 0.0
15 23:35 S 7 7.00 Fair CLR 82.4 80.6 94% 94 30 0.0
15 23:15 Calm 8.00 Fair CLR 82.4 80.6 94% 94 30 0.0
15 22:55 Calm 8.00 Fair CLR 82.4 80.6 94% 94 30.01 0.0
15 22:35 Calm 8.00 Fair CLR 84.2 80.6 89% 98 30 0.0
15 22:15 Calm 8.00 Fair CLR 84.2 80.6 89% 98 30 0.0
15 21:55 S 3 8.00 Fair CLR 84.2 80.6 89% 98 30 0.0
15 21:35 S 6 8.00 Fair CLR 84.2 80.6 89% 98 29.99 0.0
15 21:15 SW 6 8.00 Fair CLR 84.2 80.6 89% 98 29.99 0.0
15 20:55 SW 7 8.00 Fair CLR 86 80.6 84% 102 29.98 0.0
15 20:15 S 7 6.00 Fog/Mist CLR 86 82.4 89% 105 29.99 0.0
Date Time (edt) Wind (mph) Vis. (mi.) Weather Sky Cond. Air Dwpt Max. Min. Relative Humidity Wind Chill (°F) Heat Index (°F) altimeter (in) sea level (mb) 1 hr 3 hr 6 hr
6 hour
Temperature (ºF) Pressure Precipitation (in)